Weather History for Iowa Falls, IA

Change the Weather History Date:

Wednesday, March 7, 2012

  Actual Average Record
Temperature  
Mean Temperature 46 °F -  
Max Temperature 61 °F 39 °F 73 °F (1987)
Min Temperature 32 °F 19 °F -9 °F (1960)
Degree Days  
Heating Degree Days 18    
Moisture  
Dew Point 40 °F    
Average Humidity 82    
Maximum Humidity 90    
Minimum Humidity 68    
Precipitation  
Precipitation 0.00 in - - ()
Sea Level Pressure  
Sea Level Pressure 29.72 in    
Wind  
Wind Speed 15 mph (SW)    
Max Wind Speed 26 mph    
Max Gust Speed 33 mph    
Visibility 9 miles    
Events Rain    
Averages and records for this station are not official NWS values.
T = Trace of Precipitation, MM = Missing Value Source: NWS Daily Summary

Daily Weather History Graph

Daily Weather History Graph

Search for Another Location

Airport:

Trip Planner

Search our weather history database for the weather conditions in past years. The results will help you decide how hot, cold, wet, or windy it might be!

Date:

Astronomy

Mar. 07, 2012 Rise Set
Actual Time 6:37 AM CST 6:10 PM CST
Civil Twilight 6:09 AM CST 6:38 PM CST
Nautical Twilight 5:37 AM CST 7:11 PM CST
Astronomical Twilight 5:04 AM CST 7:44 PM CST
Moon 5:48 PM CST (3/7) 5:48 AM CST (3/7)
Length of Visible Light 12h 29m
Length of Day
11h 32m
Waxing Gibbous, 99% of the Moon is Illuminated
Mar 7
Waxing Gibbous
Mar 8
Full
Mar 14
Last Quarter
Mar 22
New
Mar 30
First Quarter

Hourly Weather History & Observations

Time (CST) Temp. Windchill Dew Point Humidity Pressure Visibility Wind Dir Wind Speed Gust Speed Precip Events Conditions
12:15 AM 49.1 °F - 42.4 °F 78% 29.70 in 10.0 mi South 13.8 mph - N/A   Clear
12:35 AM 49.5 °F - 42.8 °F 78% 29.70 in 10.0 mi South 12.7 mph - N/A   Clear
12:55 AM 49.8 °F - 43.0 °F 77% 29.70 in 10.0 mi South 12.7 mph - N/A   Clear
1:15 AM 50.5 °F - 43.7 °F 77% 29.70 in 10.0 mi SSE 10.4 mph - N/A   Clear
1:35 AM 47.8 °F - 42.3 °F 81% 29.70 in 10.0 mi SSE 10.4 mph - N/A   Clear
1:55 AM 47.5 °F - 42.4 °F 83% 29.70 in 10.0 mi SE 10.4 mph - N/A   Clear
2:15 AM 47.3 °F - 42.3 °F 83% 29.69 in 10.0 mi SE 11.5 mph - N/A   Clear
2:55 AM 47.8 °F - 43.9 °F 86% 29.67 in 10.0 mi SSE 13.8 mph - N/A   Clear
3:15 AM 49.6 °F - 43.5 °F 79% 29.66 in 10.0 mi SSE 10.4 mph - N/A   Clear
3:55 AM 45.0 °F 40.1 °F 41.4 °F 87% 29.65 in 10.0 mi SSE 9.2 mph - N/A   Clear
4:15 AM 45.5 °F 39.9 °F 41.5 °F 86% 29.65 in 10.0 mi SSE 11.5 mph - N/A   Clear
4:35 AM 48.2 °F - 44.2 °F 86% 29.64 in 10.0 mi SSE 13.8 mph - N/A   Clear
4:55 AM 50.2 °F - 44.2 °F 80% 29.65 in 10.0 mi SSE 12.7 mph - N/A   Clear
5:55 AM 46.8 °F - 42.3 °F 84% 29.65 in 10.0 mi SSE 10.4 mph - N/A   Scattered Clouds
6:15 AM 48.2 °F - 43.2 °F 83% 29.65 in 10.0 mi SSE 13.8 mph - N/A   Scattered Clouds
6:35 AM 49.3 °F - 43.7 °F 81% 29.65 in 10.0 mi SSE 11.5 mph - N/A   Scattered Clouds
7:35 AM 51.8 °F - 45.1 °F 78% 29.65 in 10.0 mi SSE 15.0 mph - N/A   Overcast
7:55 AM 52.3 °F - 45.5 °F 78% 29.65 in 10.0 mi South 16.1 mph - N/A   Mostly Cloudy
8:15 AM 52.9 °F - 45.9 °F 77% 29.65 in 10.0 mi South 17.3 mph - N/A   Mostly Cloudy
8:35 AM 53.6 °F - 46.4 °F 77% 29.65 in 10.0 mi South 16.1 mph - N/A   Overcast
8:55 AM 54.5 °F - 47.1 °F 76% 29.65 in 10.0 mi South 15.0 mph - N/A   Overcast
9:35 AM 55.9 °F - 48.2 °F 75% 29.65 in 10.0 mi South 13.8 mph - N/A   Overcast
9:55 AM 58.5 °F - 49.5 °F 72% 29.65 in 10.0 mi SSW 21.9 mph 28.8 mph N/A   Overcast
10:15 AM 60.1 °F - 50.0 °F 69% 29.65 in 10.0 mi SSW 23.0 mph 33.4 mph N/A   Overcast
10:35 AM 61.0 °F - 50.4 °F 68% 29.65 in 10.0 mi SSW 19.6 mph 25.3 mph N/A   Overcast
11:15 AM 59.5 °F - 50.0 °F 71% 29.64 in 10.0 mi SSW 19.6 mph 25.3 mph N/A   Overcast
11:35 AM 59.7 °F - 50.0 °F 70% 29.64 in 10.0 mi SSW 16.1 mph - N/A   Overcast
11:55 AM 60.1 °F - 50.0 °F 69% 29.64 in 10.0 mi SSW 18.4 mph 25.3 mph N/A   Overcast
12:15 PM 61.2 °F - 50.5 °F 68% 29.64 in 10.0 mi SSW 25.3 mph 31.1 mph N/A   Overcast
12:35 PM 61.3 °F - 50.7 °F 68% 29.64 in 10.0 mi SSW 21.9 mph 27.6 mph N/A   Overcast
12:55 PM 58.5 °F - 50.2 °F 74% 29.67 in 10.0 mi West 26.5 mph 32.2 mph N/A Rain Light Rain
1:15 PM 49.8 °F - 46.0 °F 87% 29.69 in 10.0 mi West 20.7 mph 28.8 mph N/A   Light Drizzle
1:55 PM 46.2 °F 39.0 °F 43.2 °F 89% 29.70 in 7.0 mi WNW 18.4 mph 24.2 mph N/A   Overcast
2:15 PM 43.0 °F 34.2 °F 40.3 °F 90% 29.71 in 3.0 mi WNW 20.7 mph - N/A   Drizzle
2:35 PM 40.5 °F 31.2 °F 37.8 °F 90% 29.73 in 5.0 mi WNW 19.6 mph - N/A   Overcast
2:55 PM 39.2 °F 30.2 °F 36.5 °F 90% 29.74 in 5.0 mi WNW 17.3 mph - N/A   Overcast
3:15 PM 37.6 °F 27.4 °F 34.9 °F 90% 29.75 in 7.0 mi WNW 19.6 mph 24.2 mph N/A   Overcast
3:35 PM 37.2 °F 28.7 °F 34.3 °F 89% 29.76 in 7.0 mi WNW 13.8 mph - N/A   Overcast
3:55 PM 36.9 °F 28.2 °F 34.2 °F 90% 29.77 in 7.0 mi WNW 13.8 mph - N/A   Overcast
4:15 PM 36.5 °F 27.8 °F 33.6 °F 89% 29.77 in 7.0 mi WNW 13.8 mph - N/A   Overcast
4:35 PM 36.5 °F 28.2 °F 33.8 °F 90% 29.78 in 7.0 mi WNW 12.7 mph - N/A   Overcast
4:55 PM 36.5 °F 26.0 °F 32.9 °F 87% 29.79 in 10.0 mi WNW 19.6 mph - N/A   Overcast
5:15 PM 36.1 °F 25.9 °F 32.9 °F 88% 29.81 in 10.0 mi WNW 18.4 mph 24.2 mph N/A   Overcast
5:35 PM 35.4 °F 24.6 °F 32.0 °F 87% 29.81 in 10.0 mi NW 19.6 mph - N/A   Overcast
5:55 PM 34.9 °F 24.6 °F 31.6 °F 88% 29.84 in 10.0 mi NW 17.3 mph 23.0 mph N/A   Overcast
6:15 PM 34.5 °F 24.8 °F 31.1 °F 87% 29.84 in 10.0 mi WNW 15.0 mph - N/A   Overcast
6:35 PM 34.3 °F 24.6 °F 30.9 °F 87% 29.85 in 10.0 mi NW 15.0 mph - N/A   Overcast
7:15 PM 33.8 °F 24.8 °F 30.2 °F 87% 29.86 in 10.0 mi NW 12.7 mph - N/A   Overcast
7:35 PM 33.6 °F 22.6 °F 29.7 °F 85% 29.86 in 10.0 mi NW 18.4 mph - N/A   Overcast
7:55 PM 33.1 °F 21.5 °F 28.9 °F 85% 29.88 in 10.0 mi NW 19.6 mph 23.0 mph N/A   Overcast
8:15 PM 33.1 °F 20.9 °F 29.1 °F 85% 29.91 in 10.0 mi WNW 21.9 mph 28.8 mph N/A   Overcast
8:35 PM 32.0 °F 19.8 °F 27.5 °F 83% 29.91 in 10.0 mi NW 20.7 mph 28.8 mph N/A   Overcast
8:55 PM 32.0 °F 19.5 °F 26.6 °F 80% 29.92 in 10.0 mi NW 21.9 mph 29.9 mph N/A   Overcast
9:15 PM 32.0 °F 20.8 °F 27.3 °F 83% 29.93 in 10.0 mi NW 17.3 mph 23.0 mph N/A   Overcast
9:55 PM 31.1 °F 20.1 °F 26.4 °F 83% 29.94 in 10.0 mi WNW 16.1 mph 24.2 mph N/A   Mostly Cloudy
10:15 PM 31.3 °F 19.5 °F 26.4 °F 82% 29.96 in 10.0 mi NW 18.4 mph 27.6 mph N/A   Overcast
10:35 PM 31.1 °F 20.1 °F 26.2 °F 82% 29.97 in 10.0 mi NW 16.1 mph 24.2 mph N/A   Overcast
10:55 PM 30.7 °F 19.2 °F 25.9 °F 82% 29.98 in 10.0 mi NW 17.3 mph - N/A   Overcast
11:15 PM 30.2 °F 18.9 °F 25.5 °F 83% 29.99 in 10.0 mi WNW 16.1 mph - N/A   Scattered Clouds
11:55 PM 30.0 °F 17.5 °F 24.4 °F 80% 30.00 in 10.0 mi NW 19.6 mph 24.2 mph N/A   Scattered Clouds